[[{"header":{"parameterUnit":"m.s-1","parameterCategory":1,"la1":30.2991,"la2":30.254,"lo1":-89.0895,"lo2":-89.0444,"dy":0.0017,"dx":0.0017,"nx":28,"ny":28,"refTime":"2025-12-27T03:00:00:Z","depth":0,"parameterNumber":2,"parameterNumberName":"U-component_of_WINDS"},"data":[0,0,0,0,0,0,0,0,0,0,0,0,0,0,0,0,0,0,0,0,0,0,0,0,0,0,0,0,0,0,0,0,0,0,0,0,0,0,0,0,0,0,0,0,0,0,0,0,0,0,0,0,0,0,0,0,0,0,2.049,2.0491,0,2.0568,2.0568,2.0569,2.0539,2.0537,2.0535,2.0533,2.0618,2.0622,2.0626,0,0,0,0,0,0,0,0,0,0,0,0,0,2.0322,2.0325,2.049,2.0491,2.0492,2.0567,2.0568,2.057,2.0539,2.0537,2.0535,2.0532,2.0617,2.0621,2.0626,0,0,0,0,0,0,0,0,0,0,0,0,0,2.0397,2.0326,2.049,2.0486,2.0486,2.0567,2.0569,2.057,2.0539,2.0537,2.0534,2.0531,2.0615,2.0621,2.0627,2.0718,0,0,2.0645,2.0647,0,0,0,0,0,0,0,0,2.0393,2.0403,2.0486,2.0486,2.0487,2.0541,2.054,2.062,2.054,2.0519,2.0533,2.053,2.0595,2.0602,2.0623,2.0722,2.0725,2.0645,2.0649,2.0651,2.0653,0,0,0,0,0,0,0,2.0387,2.04,2.0521,2.0487,2.0488,2.0482,2.049,2.0555,2.0572,2.0521,2.0519,2.0528,2.0595,2.0617,2.0625,2.0727,2.0645,2.065,2.0654,2.0656,2.0906,2.0909,0,0,0,0,0,0,2.0381,2.0395,2.0519,2.0523,2.0432,2.0487,2.0496,2.0526,2.0571,2.0575,2.0531,2.0527,2.0608,2.0618,2.0627,2.0738,2.0651,2.0657,2.066,2.0903,2.0907,2.091,0,0,0,0,0,0,2.0378,2.0393,2.0515,2.0459,2.0474,2.0493,2.0528,2.0529,2.0552,2.0578,2.0581,2.055,2.0607,2.0619,2.0695,2.074,2.066,2.0665,2.0899,2.0904,2.0908,2.0959,0,0,0,0,0,0,2.0373,2.0391,2.0425,2.046,2.0477,2.0581,2.053,2.0533,2.0561,2.0557,2.0597,2.0601,2.0605,2.0687,2.0701,2.0747,2.067,2.0895,2.0901,2.0907,2.0953,2.0965,2.0974,0,0,0,0,0,2.0367,2.0437,2.0427,2.0442,2.0519,2.0583,2.0593,2.0595,2.0565,2.06,2.0617,2.06,2.0733,2.0695,2.0711,2.0759,2.0892,2.09,2.0906,2.0949,2.0963,2.0974,0,0,0,0,0,0,2.0409,2.0442,2.043,2.0513,2.0546,2.0578,2.0622,2.061,2.0652,2.0647,2.0649,2.0658,2.0737,2.0756,2.0713,2.085,2.0808,2.0819,2.0835,2.0849,2.0859,2.0853,2.0675,0,0,0,0,0,2.0427,2.0475,2.0502,2.0572,2.0589,2.0603,2.0631,2.0629,2.0663,2.0677,2.07,2.0735,2.0785,2.0818,2.0865,2.0956,2.0965,2.0997,2.1008,2.1016,2.1025,2.1076,2.1091,2.0933,2.0933,2.0932,0,0,2.0467,2.049,2.0521,2.0581,2.0606,2.0657,2.0614,2.067,2.0708,2.0686,2.0759,2.0777,2.0817,2.0901,2.094,2.0919,2.1071,2.1025,2.1032,2.1036,2.1085,2.11,2.1113,2.0937,2.0936,2.0936,0,0,2.0564,2.0587,2.0648,2.0674,2.0711,2.072,2.0735,2.0769,2.078,2.0853,2.0837,2.0884,2.097,2.0999,2.1025,2.1134,2.1121,2.115,2.1205,2.1254,2.1267,2.1278,2.1318,2.1332,2.1159,2.1159,2.1159,0,2.0609,2.0683,2.0682,2.0739,2.0767,2.0747,2.0811,2.0836,2.0888,2.0909,2.0885,2.0992,2.1017,2.1108,2.1135,2.1157,2.1175,2.1145,2.1265,2.1276,2.1286,2.1324,2.1339,2.1162,2.1162,2.1161,2.1161,0,2.0737,2.0789,2.0834,2.0883,2.0916,2.0976,2.0986,2.102,2.1016,2.1028,2.1103,2.1133,2.1186,2.1208,2.1205,2.1299,2.1285,2.1263,2.1221,2.1305,2.134,2.1355,2.1167,2.1166,2.1165,2.1164,0,0,2.0862,2.091,2.0927,2.0949,2.0989,2.103,2.109,2.1141,2.117,2.1207,2.1259,2.1331,2.1311,2.1341,2.1341,2.1384,2.147,2.1357,2.1358,2.1378,2.1577,2.1594,2.1611,2.1462,2.1464,2.1467,2.1574,0,2.0964,2.1067,2.1068,2.1163,2.1212,2.1195,2.1248,2.1279,2.1292,2.1337,2.1352,2.1404,2.1373,2.1391,2.1433,2.1451,2.1511,2.1443,2.1511,2.1513,2.1502,2.1629,2.1647,2.1747,2.1588,2.1591,2.1592,0,2.1095,2.1134,2.1235,2.1269,2.1289,2.1336,2.1383,2.1425,2.1462,2.1468,2.1501,2.1495,2.1558,2.1514,2.1602,2.1556,2.1584,2.1597,2.1601,2.1608,2.1558,2.164,2.1779,2.1794,2.1614,2.1612,2.1611,0,2.1177,2.1256,2.1326,2.1346,2.1387,2.142,2.144,2.1473,2.1503,2.1545,2.1565,2.1614,2.1641,2.168,2.1688,2.1655,2.1777,2.1733,2.1785,2.1785,2.1812,2.181,2.1958,2.1829,2.1829,2.1829,2.1829,0,2.129,2.1353,2.1364,2.1407,2.1477,2.1478,2.1548,2.1565,2.1594,2.1642,2.1631,2.1676,2.1684,2.1732,2.1739,2.1811,2.1823,2.1832,2.1833,2.1833,2.1832,2.1851,2.1845,2.1833,2.1832,2.1831,2.183,0,2.1394,2.1404,2.1479,2.1512,2.1522,2.1572,2.1601,2.1643,2.1655,2.1715,2.173,2.1749,2.1805,2.1816,2.1883,2.1887,2.1974,2.1968,2.1961,2.1961,2.2013,2.2008,2.2178,2.2201,2.2057,2.2059,2.206,0,2.1465,2.1513,2.155,2.1581,2.1601,2.165,2.1681,2.1685,2.1718,2.1763,2.1801,2.1854,2.1898,2.1988,2.2009,2.206,2.2056,2.2112,2.2063,2.2062,2.2057,2.2054,2.206,2.2121,2.2123,2.2124,2.2125,0,2.1591,2.1594,2.1638,2.1684,2.1721,2.1758,2.1794,2.182,2.1829,2.1867,2.1922,2.1956,2.2023,2.2078,2.2129,2.215,2.214,2.214,2.2155,2.2156,2.215,2.2154,2.1987,2.2136,2.2135,2.2134,2.2134,2.2133,2.1682,2.1723,2.1756,2.1806,2.1833,2.1866,2.1908,2.1924,2.1971,2.2024,2.2025,2.2086,2.2123,2.219,2.2215,2.2264,2.2247,2.2268,2.2274,2.2279,2.2284,2.2142,2.2273,2.2273,2.2273,2.2272,2.2272,0,2.1807,2.1828,2.1874,2.1923,2.1963,2.1948,2.1986,2.2021,2.2075,2.2109,2.2152,2.2217,2.2269,2.2295,2.2347,2.2382,2.2379,2.2396,2.2394,2.2399,2.2296,2.2278,2.2398,2.2398,2.2398,2.2398,2.2398,2.2398,2.1877,2.1947,2.1954,2.2038,2.2058,2.2117,2.2141,2.2172,2.2199,2.2272,2.2315,2.233,2.2362,2.2417,2.2465,2.2471,2.2492,2.2511,2.2515,2.2419,2.2406,2.2394,2.2377,2.2515,2.2516,2.2614,2.2615,2.2616]},{"header":{"parameterUnit":"m.s-1","parameterCategory":1,"la1":30.2991,"la2":30.254,"lo1":-89.0895,"lo2":-89.0444,"dy":0.0017,"dx":0.0017,"nx":28,"ny":28,"refTime":"2025-12-27T03:00:00:Z","depth":0,"parameterNumber":3,"parameterNumberName":"V-component_of_WINDS"},"data":[0,0,0,0,0,0,0,0,0,0,0,0,0,0,0,0,0,0,0,0,0,0,0,0,0,0,0,0,0,0,0,0,0,0,0,0,0,0,0,0,0,0,0,0,0,0,0,0,0,0,0,0,0,0,0,0,0,0,2.7224,2.7226,0,2.7329,2.733,2.7331,2.7331,2.733,2.7328,2.7327,2.7434,2.7438,2.7442,0,0,0,0,0,0,0,0,0,0,0,0,0,2.7025,2.7029,2.7224,2.7226,2.7227,2.7329,2.733,2.7332,2.7331,2.733,2.7328,2.7326,2.7433,2.7438,2.7443,0,0,0,0,0,0,0,0,0,0,0,0,0,2.7119,2.703,2.7224,2.7239,2.7242,2.7328,2.733,2.7332,2.7332,2.733,2.7328,2.7326,2.7431,2.7437,2.7443,2.7522,0,0,2.7462,2.7465,0,0,0,0,0,0,0,0,2.7114,2.7126,2.7236,2.7238,2.7241,2.7315,2.7299,2.7396,2.7332,2.7297,2.7327,2.7325,2.7396,2.7405,2.7429,2.7527,2.7532,2.7463,2.7467,2.7469,2.7471,0,0,0,0,0,0,0,2.7107,2.7122,2.7266,2.7237,2.7241,2.7241,2.7252,2.7318,2.7357,2.73,2.7301,2.7313,2.7397,2.7423,2.7432,2.7534,2.7463,2.7468,2.7472,2.7474,2.7702,2.7705,0,0,0,0,0,0,2.7098,2.7116,2.7262,2.7269,2.7171,2.7246,2.7258,2.7293,2.7356,2.7364,2.7315,2.7312,2.7414,2.7425,2.7436,2.7533,2.7469,2.7475,2.7479,2.77,2.7703,2.7706,0,0,0,0,0,0,2.7093,2.7111,2.7258,2.7193,2.7212,2.7252,2.7291,2.7296,2.7322,2.7367,2.7374,2.7334,2.7413,2.7427,2.7501,2.7537,2.7478,2.7483,2.7697,2.7701,2.7704,2.7728,0,0,0,0,0,0,2.7088,2.7109,2.7139,2.7193,2.7215,2.7322,2.7293,2.73,2.7333,2.7331,2.7387,2.7394,2.7412,2.7492,2.7507,2.7544,2.7488,2.7694,2.7699,2.7703,2.7724,2.7732,2.7738,0,0,0,0,0,2.708,2.7142,2.7141,2.7159,2.7254,2.7324,2.7336,2.7355,2.7336,2.7367,2.7396,2.7392,2.753,2.7499,2.7517,2.7556,2.7692,2.7698,2.7703,2.7721,2.773,2.7738,0,0,0,0,0,0,2.7091,2.7149,2.7149,2.7229,2.7272,2.7324,2.7363,2.7365,2.7413,2.741,2.7432,2.7444,2.7518,2.7544,2.7509,2.7636,2.7609,2.7618,2.7617,2.7626,2.7633,2.7625,2.7493,0,0,0,0,0,2.7103,2.7155,2.7202,2.7269,2.729,2.7323,2.7354,2.7365,2.741,2.7428,2.7462,2.7506,2.7559,2.7594,2.7645,2.7727,2.774,2.7763,2.777,2.7776,2.7784,2.783,2.7841,2.7723,2.7723,2.7723,0,0,2.7127,2.7165,2.7197,2.7272,2.7306,2.736,2.7338,2.7396,2.7436,2.7437,2.7509,2.7536,2.7586,2.7665,2.7701,2.7689,2.7819,2.7782,2.7786,2.7792,2.7836,2.7848,2.7858,2.7726,2.7726,2.7725,0,0,2.72,2.7234,2.7293,2.7328,2.738,2.7401,2.7415,2.7468,2.7485,2.7558,2.756,2.7608,2.7699,2.7735,2.7765,2.7851,2.7851,2.7867,2.7905,2.795,2.7959,2.7967,2.7999,2.801,2.7875,2.7875,2.7875,0,2.7224,2.7305,2.7324,2.7382,2.7415,2.7418,2.7479,2.7511,2.7577,2.7601,2.7585,2.77,2.7734,2.7821,2.7842,2.7866,2.7884,2.7861,2.7956,2.7965,2.7973,2.8003,2.8015,2.7876,2.7876,2.7876,2.7876,0,2.7333,2.7389,2.7431,2.7495,2.7533,2.7592,2.7619,2.7655,2.7663,2.7686,2.776,2.7801,2.7861,2.7882,2.789,2.7972,2.7962,2.7951,2.7925,2.7986,2.8015,2.8026,2.7879,2.7878,2.7878,2.7877,0,0,2.7416,2.7489,2.7505,2.7534,2.7591,2.7635,2.7694,2.7753,2.7784,2.7829,2.788,2.7956,2.7947,2.7981,2.7993,2.8032,2.8099,2.8016,2.8018,2.8031,2.8192,2.8201,2.8214,2.8098,2.81,2.8102,2.8188,0,2.7496,2.7601,2.762,2.7712,2.7765,2.7768,2.782,2.7861,2.7884,2.7932,2.7957,2.8012,2.7994,2.8015,2.8054,2.8083,2.8132,2.8076,2.8146,2.8149,2.8135,2.8229,2.8239,2.8318,2.82,2.8201,2.8203,0,2.7603,2.7651,2.7749,2.78,2.7823,2.7869,2.7924,2.797,2.8016,2.803,2.8069,2.8076,2.8138,2.8107,2.8193,2.8155,2.8185,2.8203,2.8207,2.8215,2.818,2.8241,2.8343,2.8356,2.8221,2.8219,2.8218,0,2.7655,2.7745,2.7815,2.784,2.79,2.7933,2.796,2.8004,2.8038,2.8087,2.8109,2.8164,2.8194,2.8236,2.8258,2.8234,2.8343,2.8314,2.8357,2.8357,2.8381,2.838,2.8491,2.8398,2.8398,2.8398,2.8397,0,2.7743,2.7803,2.7839,2.7883,2.795,2.797,2.8036,2.8063,2.8102,2.8151,2.8157,2.8202,2.8228,2.8277,2.8295,2.8364,2.8377,2.8391,2.8395,2.8391,2.8389,2.8412,2.8407,2.8401,2.84,2.8399,2.8399,0,2.7813,2.784,2.7917,2.7968,2.7982,2.803,2.8074,2.8116,2.8139,2.82,2.8216,2.8252,2.831,2.8336,2.8408,2.842,2.8499,2.8498,2.8483,2.8485,2.8527,2.8523,2.8658,2.8677,2.857,2.8571,2.8572,0,2.7868,2.7915,2.7971,2.8004,2.8032,2.8085,2.812,2.8142,2.8178,2.8234,2.827,2.8329,2.8377,2.847,2.8503,2.8558,2.8559,2.8603,2.8568,2.8563,2.8562,2.8559,2.8564,2.8609,2.861,2.8611,2.8612,0,2.7963,2.7974,2.8024,2.808,2.8121,2.8166,2.8209,2.8236,2.8264,2.8305,2.8365,2.8402,2.8476,2.8534,2.8591,2.8619,2.8621,2.8622,2.8636,2.8633,2.8623,2.863,2.8502,2.862,2.8619,2.8618,2.8618,2.8618,2.8029,2.807,2.8116,2.8172,2.8207,2.8248,2.8291,2.8319,2.8369,2.8431,2.844,2.8505,2.855,2.8627,2.8657,2.8708,2.8697,2.8716,2.8721,2.8725,2.8729,2.8613,2.8718,2.8718,2.8717,2.8717,2.8717,0,2.8125,2.8155,2.8206,2.8267,2.8311,2.8308,2.8356,2.8394,2.845,2.8492,2.854,2.8609,2.8666,2.8702,2.876,2.8793,2.8795,2.8808,2.8806,2.8813,2.8734,2.8718,2.8805,2.8805,2.8805,2.8805,2.8805,2.8805,2.818,2.8251,2.8267,2.8356,2.8385,2.8448,2.8476,2.8514,2.8548,2.8625,2.8672,2.8695,2.8736,2.8796,2.8848,2.8857,2.8879,2.8892,2.8901,2.8827,2.8818,2.8809,2.8794,2.8896,2.8896,2.8975,2.8976,2.8977]}]]